Location: Oberwangen
(47.4286°N, 8.9679°E)
Time: 23:31:36
(UTC+00:00)

Aureole 3 - Pass Details

Date: 20 June 2021
Orbit: 382 x 1227 km, 82.5° (Epoch: 23 July)

Event Time Altitude Azimuth Distance (km) Brightness Sun altitude
Rises 22:46:17 0° 358° (N) 2,577 8.4 -18.6°
Reaches altitude 10° 22:48:18 10° 7° (N) 1,785 7.1 -18.6°
Maximum altitude 22:52:00 40° 78° (ENE) 909 4.4 -18.7°
Enters shadow 22:53:46 28° 125° (SE) 1,227 4.7 -18.8°
